STARLINK-35185 (65608 NORAD) Tracking and Keplerian Element Data

This shows tracking and keplerian element data for the satellite.

Feedback or suggestion? Click here.




ElementValue
Catalog65608
NameSTARLINK-35185
Epoch Orbit1602
Epoch Day352.42999243
Epoch Year2025
RAAN58.3969
Inclination97.6078
Eccentricity0.0003523
Argument of Perigee114.8023
Mean Anonmoly245.3588
Mean Motion15.39303463
Decay Rate-7.945E-05
L11 65608U 25207S 25352.42999243 -.00007945 00000+0 -20189-3 0 9999
L22 65608 97.6078 58.3969 0003523 114.8023 245.3588 15.39303463 16027



Live tracking and technical data element details for STARLINK-35185 (NORAD 65608). STARLINK-35185 can be tracked NOW for your location showing map with azimuth and elevation plus other details from your city location.







IsCatalogInMostPopularTable: catalog: 65608, numindb: 13
Update: records affected: 1



GetName: 65608 STARLINK-35185

Hit Count: updated at: Tue, 21 Apr 2026 19:42:30 GMT